Weather History for Livingston, MT

Change the Weather History Date:

Saturday, December 8, 2012

  Actual Average Record
Temperature  
Mean Temperature 23 °F 26 °F  
Max Temperature 34 °F 36 °F 58 °F (1957)
Min Temperature 12 °F 17 °F -30 °F (1972)
Degree Days  
Heating Degree Days 42 39  
Month to date heating degree days 303  
Since 1 July heating degree days 2262  
Moisture  
Dew Point 13 °F    
Average Humidity 72    
Maximum Humidity 93    
Minimum Humidity 51    
Precipitation  
Precipitation 0.04 in 0.02 in 0.11 in (1986)
Month to date precipitation 0.16  
Year to date precipitation 14.45  
Sea Level Pressure  
Sea Level Pressure 29.88 in    
Wind  
Wind Speed 19 mph (West)    
Max Wind Speed 34 mph    
Max Gust Speed 46 mph    
Visibility 4 miles    
Events Fog , Snow    
T = Trace of Precipitation, MM = Missing Value Source: NWS Daily Summary

Daily Weather History Graph

Daily Weather History Graph

Search for Another Location

Airport:

Trip Planner

Search our weather history database for the weather conditions in past years. The results will help you decide how hot, cold, wet, or windy it might be!

Date:

Astronomy

Dec. 08, 2012 Rise Set
Actual Time 7:50 AM MST 4:37 PM MST
Civil Twilight 7:16 AM MST 5:11 PM MST
Nautical Twilight 6:38 AM MST 5:49 PM MST
Astronomical Twilight 6:02 AM MST 6:25 PM MST
Moon 2:05 AM MST (12/8) 1:21 PM MST (12/8)
Length of Visible Light 9h 55m
Length of Day
8h 47m
Waning Crescent, 27% of the Moon is Illuminated
Dec 8
Waning Crescent
Dec 13
New
Dec 19
First Quarter
Dec 28
Full
Jan 4
Last Quarter

Hourly Weather History & Observations

Time (MST) Temp. Windchill Dew Point Humidity Pressure Visibility Wind Dir Wind Speed Gust Speed Precip Events Conditions
12:53 AM 34.0 °F 22.4 °F 18.0 °F 52% 29.60 in 10.0 mi West 20.7 mph 25.3 mph N/A   Overcast
1:53 AM 32.0 °F 19.5 °F 21.9 °F 66% 29.67 in 8.0 mi NW 21.9 mph 39.1 mph 0.00 in Snow Light Snow
1:56 AM 28.4 °F 15.1 °F 24.8 °F 86% 29.60 in 4.0 mi NNW 20.7 mph 35.7 mph 0.00 in Snow Light Snow
1:59 AM 28.4 °F 13.8 °F 23.0 °F 80% 29.60 in 1.8 mi NNW 25.3 mph 33.4 mph 0.00 in Snow Light Snow
2:01 AM 28.4 °F 14.1 °F 23.0 °F 80% 29.60 in 1.0 mi NNW 24.2 mph 33.4 mph 0.00 in Snow Light Snow
2:03 AM 28.4 °F 15.4 °F 23.0 °F 80% 29.60 in 0.8 mi NNW 19.6 mph 33.4 mph 0.00 in Snow Light Snow
2:11 AM 26.6 °F 15.7 °F 24.8 °F 93% 29.60 in 0.2 mi NW 12.7 mph 25.3 mph 0.01 in Fog , Snow Heavy Snow
2:35 AM 28.4 °F 16.6 °F 24.8 °F 86% 29.61 in 1.2 mi West 16.1 mph - 0.02 in Snow Light Snow
2:38 AM 28.4 °F 18.0 °F 24.8 °F 86% 29.61 in 2.5 mi WSW 12.7 mph - 0.02 in Snow Light Snow
2:45 AM 28.4 °F 18.5 °F 24.8 °F 86% 29.61 in 6.0 mi WSW 11.5 mph - 0.02 in Snow Light Snow
2:53 AM 28.0 °F 15.7 °F 23.0 °F 81% 29.69 in 7.0 mi WSW 17.3 mph - 0.02 in Snow Light Snow
4:53 AM 28.0 °F 14.9 °F 12.9 °F 53% 29.72 in 10.0 mi WSW 19.6 mph 26.5 mph 0.00 in   Scattered Clouds
5:09 AM 24.8 °F 7.3 °F 12.2 °F 59% 29.65 in 1.8 mi West 32.2 mph 46.0 mph 0.00 in Snow Light Snow
5:18 AM 26.6 °F 11.1 °F 10.4 °F 51% 29.66 in 3.0 mi WSW 26.5 mph 38.0 mph 0.00 in Snow Light Snow
5:40 AM 24.8 °F 9.3 °F 12.2 °F 59% 29.66 in 2.5 mi WSW 24.2 mph 39.1 mph 0.00 in Snow Light Snow
5:53 AM 25.0 °F 7.1 °F 10.0 °F 53% 29.75 in 2.0 mi WSW 34.5 mph 42.6 mph 0.00 in   Mostly Cloudy
6:03 AM 23.0 °F 4.9 °F 12.2 °F 63% 29.65 in 1.2 mi WSW 32.2 mph 42.6 mph 0.00 in Snow Light Snow
6:14 AM 24.8 °F 9.3 °F 10.4 °F 54% 29.68 in 3.0 mi West 24.2 mph 43.7 mph 0.00 in Snow Light Snow
6:53 AM 24.1 °F 8.0 °F 10.0 °F 55% 29.79 in 4.0 mi WSW 25.3 mph 39.1 mph 0.00 in   Haze
7:53 AM 24.1 °F 8.3 °F 12.0 °F 60% 29.81 in 5.0 mi West 24.2 mph 39.1 mph 0.00 in   Overcast
8:53 AM 24.1 °F 7.4 °F 12.9 °F 62% 29.83 in 9.0 mi WSW 27.6 mph 35.7 mph N/A   Overcast
9:12 AM 24.8 °F 7.9 °F 14.0 °F 64% 29.73 in 2.0 mi WSW 29.9 mph 41.4 mph 0.00 in   Overcast
9:35 AM 24.8 °F 6.8 °F 15.8 °F 69% 29.74 in 1.2 mi WSW 34.5 mph 44.9 mph 0.00 in   Overcast
9:45 AM 24.8 °F 7.3 °F 15.8 °F 69% 29.75 in 2.0 mi WSW 32.2 mph 39.1 mph 0.00 in   Haze
9:53 AM 24.1 °F 6.6 °F 15.1 °F 69% 29.86 in 3.0 mi West 31.1 mph 39.1 mph 0.00 in   Haze
10:10 AM 19.4 °F 1.8 °F 12.2 °F 74% 29.81 in 1.5 mi NW 25.3 mph 28.8 mph 0.00 in Snow Light Snow
10:12 AM 19.4 °F 2.8 °F 12.2 °F 74% 29.81 in 1.0 mi NW 21.9 mph 28.8 mph 0.00 in Snow Light Snow
10:20 AM 19.4 °F 2.5 °F 12.2 °F 74% 29.81 in 0.8 mi NW 23.0 mph 29.9 mph 0.00 in Snow Light Snow
10:31 AM 19.4 °F 3.2 °F 12.2 °F 74% 29.82 in 0.5 mi WNW 20.7 mph 28.8 mph 0.00 in Snow Snow
10:53 AM 19.0 °F 3.2 °F 12.9 °F 77% 29.96 in 0.8 mi WNW 19.6 mph 27.6 mph 0.00 in Snow Light Snow
11:15 AM 19.4 °F 4.5 °F 14.0 °F 80% 29.87 in 0.2 mi NW 17.3 mph 26.5 mph 0.00 in Snow Heavy Snow
11:22 AM 17.6 °F 3.7 °F 12.2 °F 79% 29.88 in 0.2 mi NW 13.8 mph - 0.00 in Snow Heavy Snow
11:53 AM 18.0 °F 4.8 °F 12.9 °F 81% 29.99 in 0.2 mi NNW 12.7 mph 23.0 mph 0.01 in Snow Heavy Snow
12:24 PM 19.4 °F 6.6 °F 12.2 °F 74% 29.89 in 0.8 mi NW 12.7 mph - 0.00 in Snow Light Snow
12:53 PM 18.0 °F 6.1 °F 12.9 °F 81% 30.02 in 0.8 mi West 10.4 mph - 0.01 in Snow Light Snow
12:57 PM 17.6 °F 5.7 °F 12.2 °F 79% 29.90 in 1.2 mi West 10.4 mph - 0.00 in Snow Light Snow
1:05 PM 17.6 °F 4.3 °F 12.2 °F 79% 29.90 in 0.8 mi West 12.7 mph - 0.00 in Snow Light Snow
1:37 PM 19.4 °F 7.9 °F 12.2 °F 74% 29.91 in 1.0 mi West 10.4 mph - 0.00 in Snow Light Snow
1:48 PM 19.4 °F 8.6 °F 12.2 °F 74% 29.91 in 1.5 mi West 9.2 mph - 0.00 in Snow Light Snow
1:53 PM 19.0 °F 7.5 °F 12.0 °F 74% 30.04 in 1.5 mi West 10.4 mph - 0.00 in Snow Light Snow
2:30 PM 19.4 °F 9.5 °F 12.2 °F 74% 29.93 in 3.0 mi West 8.1 mph - 0.00 in Snow Light Snow
2:43 PM 19.4 °F 7.9 °F 10.4 °F 68% 29.93 in 6.0 mi WSW 10.4 mph - 0.00 in   Haze
2:53 PM 19.0 °F 7.5 °F 10.9 °F 71% 30.08 in 8.0 mi WSW 10.4 mph - 0.00 in   Overcast
3:53 PM 18.0 °F 6.1 °F 8.1 °F 65% 30.12 in 10.0 mi West 10.4 mph - N/A   Overcast
4:53 PM 17.1 °F 5.0 °F 6.1 °F 62% 30.16 in 10.0 mi West 10.4 mph - N/A   Overcast
5:53 PM 16.0 °F 4.4 °F 6.1 °F 65% 30.19 in 10.0 mi West 9.2 mph - N/A   Overcast
6:53 PM 16.0 °F 3.6 °F 5.0 °F 62% 30.22 in 10.0 mi West 10.4 mph - N/A   Mostly Cloudy
7:53 PM 16.0 °F 5.3 °F 7.0 °F 68% 30.24 in 10.0 mi West 8.1 mph - N/A   Overcast
8:53 PM 16.0 °F 7.4 °F 7.0 °F 68% 30.26 in 10.0 mi NW 5.8 mph - 0.00 in   Overcast
9:53 PM 14.0 °F 2.0 °F 8.1 °F 77% 30.29 in 3.0 mi NE 9.2 mph - 0.00 in Snow Light Snow
9:55 PM 14.0 °F 1.2 °F 8.6 °F 79% 30.11 in 2.5 mi ENE 10.4 mph - 0.00 in Snow Light Snow
10:36 PM 12.2 °F -1.0 °F 8.6 °F 85% 30.11 in 2.0 mi East 10.4 mph - 0.00 in Snow Light Snow
10:53 PM 12.9 °F 0.7 °F 8.1 °F 81% 30.31 in 3.0 mi East 9.2 mph - 0.00 in Snow Light Snow
11:24 PM 12.2 °F -0.2 °F 8.6 °F 85% 30.12 in 2.5 mi East 9.2 mph - 0.00 in Snow Light Snow
11:33 PM 12.2 °F 1.7 °F 8.6 °F 85% 30.12 in 3.0 mi East 6.9 mph - 0.00 in Snow Light Snow
11:53 PM 12.0 °F 2.7 °F 7.0 °F 80% 30.33 in 4.0 mi East 5.8 mph - 0.00 in Snow Light Snow